Current weather by "City, St" or "zip code"  
 
Advertise Here

Current Conditions: Rutland-Southern Vermont Regional Airport, VT

Fair


63.0 F

Last Updated on Sep 16 2021, 10:56 pm EDT
Humidity: 97%
Wind Speed: SE 11.5 mph
Barometer 30.31 in
Dewpoint: 62.1 F
Visibility: 10.00 mi
Precip: --
Heat Index: NA
Wind Chill: 62 F
Current conditions at:

Rutland-Southern Vermont Regional Airport, VT (KRUT)

Lat: 43.53333 Lon: 72.95

Local Radar Image active severe weather and emergency alerts image image weather storm and storm spotter reports image weather observation monitoring service image
Local
Radar
Active
Alerts
Storm Reports Obs
Monitoring

Sign-up For Email & Text Message Weather Alert Notification Services



Advertise Here

Observation History for Rutland-Southern Vermont Regional Airport, VT


Time Wind
(mph)
Vis
(mi)
Weather Precip (in) Temperature (F) Relative
Humidity
Wind
Chill
(F)
Heat
Index
(F)
Pressure
Air Dwpt altimeter
(in)
sea level
(mb)
Rmks
10:56 pm EDT SE 11.5 10.00 Fair -- 63.0 62.1 97% 62 NA 30.31 1025.9
9:56 pm EDT SE 8.1 10.00 Fair -- 63.0 62.1 97% 63 NA 30.32 1026.2
8:56 pm EDT SE 5.8 10.00 Fair -- 65.0 62.1 90% NA NA 30.32 1026.2
7:56 pm EDT 6.9 10.00 A Few Clouds -- 67.0 61.0 81% NA NA 30.30 1025.5
6:56 pm EDT SE 6.9 10.00 A Few Clouds -- 68.0 61.0 78% NA NA 30.27 1024.6
5:56 pm EDT SE 9.2 10.00 A Few Clouds -- 70.0 59.0 68% NA NA 30.26 1024.2
4:56 pm EDT SE 9.2 10.00 Fair -- 73.0 57.9 59% NA NA 30.25 1023.5
3:56 pm EDT E 9.2 10.00 Fair -- 72.0 55.9 57% NA NA 30.25 1023.7
2:56 pm EDT E 6.9 10.00 Fair -- 73.0 53.1 50% NA NA 30.26 1023.8
1:56 pm EDT SE 5.8 10.00 Fair -- 72.0 55.0 55% NA NA 30.27 1024.2
12:56 pm EDT N 0.0 10.00 Fair -- 69.0 55.0 61% NA NA 30.29 1024.8
11:56 am EDT NW 4.6 10.00 Fair -- 67.0 55.9 68% NA NA 30.29 1024.9
10:56 am EDT 3.5 10.00 Fair -- 64.0 57.0 78% NA NA 30.29 1025.0
9:56 am EDT N 0.0 10.00 Overcast -- 60.0 59.0 96% NA NA 30.29 1025.2
8:56 am EDT N 0.0 10.00 Overcast -- 57.0 57.0 100% NA NA 30.27 1024.7
7:56 am EDT NW 3.5 10.00 Overcast -- 56.0 55.9 100% NA NA 30.25 1024.0
6:56 am EDT N 0.0 10.00 Overcast -- 56.0 55.9 100% NA NA 30.23 1023.1
5:56 am EDT N 0.0 10.00 Fair -- 57.0 57.0 100% NA NA 30.20 1021.9
4:56 am EDT N 0.0 10.00 Mostly Cloudy -- 58.0 57.9 100% NA NA 30.17 1021.1
3:56 am EDT N 3.5 10.00 Overcast -- 59.0 59.0 100% NA NA 30.16 1020.7
2:56 am EDT N 3.5 10.00 Overcast -- 59.0 59.0 100% NA NA 30.14 1020.0
1:56 am EDT NW 4.6 10.00 Overcast -- 62.0 62.1 100% 62 NA 30.13 1019.4
12:56 am EDT N 0.0 10.00 Light Rain -- 62.0 62.1 100% NA NA 30.11 1018.9
11:56 pm EDT W 3.5 10.00 Light Rain -- 64.0 64.0 100% NA NA 30.10 1018.4

Regional Weather Observation


Rutland-Southern Vermont Regional Airport, VT (KRUT)

Fair
63.0 F

Glens Falls, Floyd Bennett Memorial Airport, NY (KGFL)

Fog/Mist
57.0 F

Springfield, Hartness State Springfield Airport, VT (KVSF)

Overcast
62.0 F

Lebanon Municipal Airport, NH (KLEB)

Fair
59.0 F

Barre / Montpelier, Knapp State Airport, VT (KMPV)

Fair
62.0 F

Burlington, Burlington International Airport, VT (KBTV)

Mostly Cloudy
62.0 F
Advertise Here


Advertise Here